CW4549 Weather Reports


Display with metric or nautical units.
time (UTC)temp
F
wind
direction
speed
MPH
gust
MPH
rain 1hr
in
rain 24hr
in
rain mn
in
humidity
%
barometer
mb
20260831191515 93 158 1.0 7.0 0.00 0.00 0.00 51 1013.2
20260831190017 92 158 1.0 8.0 0.00 0.00 0.00 55 1013.4
20260831184537 92 0.0 11.0 0.00 0.00 0.00 56 1013.7
20260831183037 91 158 1.0 11.0 0.00 0.00 0.00 54 1013.8
20260831181515 91 135 1.0 7.0 0.00 0.00 0.00 59 1013.8
20260831180015 91 135 1.0 7.0 0.00 0.00 0.00 61 1013.9
20260831174516 92 0.0 6.0 0.00 0.00 0.00 59 1014.0
20260831173016 91 113 1.0 8.0 0.00 0.00 0.00 61 1014.1
20260831171556 91 0.0 5.0 0.00 0.00 0.00 63 1014.1
20260831170037 91 135 1.0 10.0 0.00 0.00 0.00 60 1014.1
20260831164516 90 135 1.0 12.0 0.00 0.00 0.00 64 1014.3
20260831163017 89 0.0 6.0 0.00 0.00 0.00 68 1014.4
20260831161516 89 0.0 3.0 0.00 0.00 0.00 65 1014.3
20260831160037 88 158 1.0 10.0 0.00 0.00 0.00 67 1014.3
20260831154537 87 0.0 2.0 0.00 0.00 0.00 72 1014.2
20260831153016 85 0.0 4.0 0.00 0.00 0.00 74 1014.2
20260831151517 84 0.0 4.0 0.00 0.00 0.00 75 1014.3
20260831150037 83 0.0 4.0 0.00 0.00 0.00 76 1014.3
20260831144516 81 0.0 6.0 0.00 0.00 0.00 80 1014.1
20260831143016 80 0.0 5.0 0.00 0.00 0.00 81 1014.0
20260831141516 79 0.0 3.0 0.00 0.00 0.00 84 1014.0
20260831140038 78 0.0 1.0 0.00 0.00 0.00 86 1014.0
20260831134516 77 0.0 2.0 0.00 0.00 0.00 87 1014.0
20260831133016 77 0.0 1.0 0.00 0.00 0.00 88 1013.9
20260831131516 77 0.0 3.0 0.00 0.00 0.00 89 1013.9
20260831130016 76 0.0 1.0 0.00 0.00 0.00 89 1013.8
20260831124516 76 0.0 1.0 0.00 0.00 0.00 91 1013.6
20260831123016 75 0.0 0.0 0.00 0.00 0.00 91 1013.8
20260831121536 74 0.0 2.0 0.00 0.00 0.00 93 1013.5
20260831120016 74 0.0 0.0 0.00 0.00 0.00 94 1013.6
20260831114536 73 0.0 1.0 0.00 0.00 0.00 94 1013.5
20260831113016 73 0.0 0.0 0.00 0.00 0.00 95 1013.5
20260831111516 73 0.0 0.0 0.00 0.00 0.00 95 1013.4
20260831110016 73 0.0 0.0 0.00 0.00 0.00 95 1013.1
20260831104516 73 0.0 0.0 0.00 0.00 0.00 94 1013.0
20260831103016 73 0.0 0.0 0.00 0.00 0.00 94 1012.8
20260831101516 74 0.0 0.0 0.00 0.00 0.00 93 1012.8
20260831100016 74 0.0 0.0 0.00 0.00 0.00 92 1012.7
20260831094518 74 0.0 0.0 0.00 0.00 0.00 91 1012.6
20260831093016 75 0.0 0.0 0.00 0.00 0.00 89 1012.7
20260831091516 75 0.0 0.0 0.00 0.00 0.00 87 1012.6
20260831090036 75 0.0 0.0 0.00 0.00 0.00 86 1012.6
20260831084518 75 0.0 1.0 0.00 0.00 0.00 85 1012.4
20260831083018 75 0.0 0.0 0.00 0.00 0.00 86 1012.3
20260831081516 74 0.0 0.0 0.00 0.00 0.00 87 1012.1
20260831080016 74 0.0 0.0 0.00 0.00 0.00 89 1011.8
20260831074536 73 0.0 0.0 0.00 0.00 0.00 92 1012.0
20260831073017 73 0.0 1.0 0.00 0.00 0.00 96 1012.1
20260831071518 72 0.0 0.0 0.00 0.00 0.00 97 1012.3
20260831070016 72 0.0 0.0 0.00 0.00 0.00 98 1012.3
20260831064516 72 0.0 0.0 0.00 0.00 0.00 98 1012.7
20260831063016 71 0.0 0.0 0.00 0.00 0.00 98 1012.9
20260831061516 71 0.0 0.0 0.00 0.00 0.00 98 1013.1
20260831060018 71 0.0 0.0 0.00 0.00 0.00 98 1013.2
20260831054536 71 0.0 0.0 0.00 0.00 0.00 97 1013.1
20260831053018 71 0.0 0.0 0.00 0.00 0.00 97 1013.1
20260831051516 72 0.0 0.0 0.00 0.00 0.00 97 1013.0
20260831050016 72 0.0 0.0 0.00 0.00 0.00 97 1012.8
20260831044516 72 0.0 0.0 0.00 0.00 0.00 96 1012.8
20260831043016 72 0.0 0.0 0.00 0.00 0.00 96 1012.9
20260831041537 72 0.0 0.0 0.00 0.00 0.00 96 1013.0
20260831040016 72 0.0 0.0 0.00 0.00 0.00 95 1013.0
20260831034519 73 0.0 0.0 0.00 0.00 0.00 95 1013.1
20260831033018 73 0.0 0.0 0.00 0.00 0.00 94 1013.2
20260831031517 73 0.0 0.0 0.00 0.00 0.00 94 1013.1
20260831030017 73 0.0 0.0 0.00 0.00 0.00 93 1013.0
20260831024519 73 0.0 0.0 0.00 0.00 0.00 92 1013.0
20260831023018 74 0.0 0.0 0.00 0.00 0.00 91 1012.9
20260831021517 74 0.0 0.0 0.00 0.00 0.00 91 1012.8
20260831020017 75 0.0 0.0 0.00 0.00 0.00 90 1012.7
20260831014517 75 0.0 0.0 0.00 0.00 0.00 89 1012.7
20260831013019 76 0.0 0.0 0.00 0.00 0.00 88 1012.6
20260831011518 76 0.0 0.0 0.00 0.00 0.00 86 1012.6
20260831010019 77 0.0 0.0 0.00 0.00 0.00 86 1012.5
20260831004517 77 0.0 0.0 0.00 0.00 0.00 85 1012.2
20260831003017 78 0.0 0.0 0.00 0.00 0.00 83 1012.1
20260831001519 79 0.0 0.0 0.00 0.00 0.00 81 1012.2
20260831000018 80 0.0 0.0 0.00 0.00 0.00 77 1012.2
20260830234519 81 0.0 0.0 0.00 0.00 0.00 75 1012.2
20260830233017 83 0.0 0.0 0.00 0.00 0.00 72 1012.0
20260830231519 84 0.0 1.0 0.00 0.00 0.00 69 1011.8
20260830230039 85 0.0 2.0 0.00 0.00 0.00 64 1011.9
20260830224517 85 0.0 0.0 0.00 0.00 0.00 63 1011.7
20260830223015 86 0.0 0.0 0.00 0.00 0.00 60 1011.8
20260830221536 87 0.0 2.0 0.00 0.00 0.00 58 1011.7
20260830220035 87 0.0 1.0 0.00 0.00 0.00 53 1011.7
20260830214517 87 0.0 3.0 0.00 0.00 0.00 52 1011.9
20260830213016 88 0.0 7.0 0.00 0.00 0.00 49 1012.2
20260830211538 89 0.0 7.0 0.00 0.00 0.00 47 1012.2
20260830210036 89 158 1.0 6.0 0.00 0.00 0.00 46 1012.2
20260830204516 90 158 1.0 11.0 0.00 0.00 0.00 45 1012.6
20260830203016 90 158 1.0 6.0 0.00 0.00 0.00 46 1012.5
20260830201516 90 135 1.0 6.0 0.00 0.00 0.00 48 1012.8
20260830200037 90 0.0 5.0 0.00 0.00 0.00 45 1013.0
20260830194537 90 0.0 6.0 0.00 0.00 0.00 43 1013.4
20260830193016 88 0.0 2.0 0.00 0.00 0.00 48 1013.5